FW8535 Weather Reports


time (UTC)temp
C
wind
direction
speed
KPH
gust
KPH
rain 1hr
cm
rain 24hr
cm
rain mn
cm
humidity
%
barometer
mb
20260510034017 8 34 0.0 1.6 0.00 0.00 0.00 47 1017.8
20260510033517 8 34 0.0 0.0 0.00 0.00 0.00 46 1017.7
20260510033015 8 34 0.0 3.2 0.00 0.00 0.00 47 1017.7
20260510032515 8 34 0.0 3.2 0.00 0.00 0.00 46 1017.6
20260510032018 9 34 1.6 3.2 0.00 0.00 0.00 46 1017.5
20260510031518 9 34 1.6 4.8 0.00 0.00 0.00 45 1017.5
20260510031014 9 36 0.0 4.8 0.00 0.00 0.00 45 1017.3
20260510030512 9 40 0.0 0.0 0.00 0.00 0.00 45 1017.3
20260510030012 10 40 0.0 0.0 0.00 0.00 0.00 44 1017.2
20260510025512 10 40 0.0 0.0 0.00 0.00 0.00 44 1017.2
20260510025012 10 40 0.0 0.0 0.00 0.00 0.00 44 1017.1
20260510024019 11 40 0.0 0.0 0.00 0.00 0.00 42 1017.0
20260510023511 11 40 0.0 0.0 0.00 0.00 0.00 42 1016.9
20260510023011 11 41 0.0 3.2 0.00 0.00 0.00 41 1016.8
20260510022512 12 41 0.0 3.2 0.00 0.00 0.00 40 1016.7
20260510022012 12 41 1.6 3.2 0.00 0.00 0.00 39 1016.8
20260510021522 13 41 1.6 4.8 0.00 0.00 0.00 38 1016.6
20260510021010 13 41 1.6 12.9 0.00 0.00 0.00 38 1016.6
20260510020509 13 46 4.8 14.5 0.00 0.00 0.00 38 1016.5
20260510020009 14 360 3.2 6.4 0.00 0.00 0.00 38 1016.5
20260510015509 15 360 0.0 3.2 0.00 0.00 0.00 38 1016.3
20260510015008 15 360 0.0 4.8 0.00 0.00 0.00 37 1016.2
20260510014009 16 360 3.2 6.4 0.00 0.00 0.00 36 1015.9
20260510013511 16 360 3.2 6.4 0.00 0.00 0.00 36 1016.1
20260510013010 16 17 3.2 6.4 0.00 0.00 0.00 36 1016.0
20260510012508 16 326 1.6 6.4 0.00 0.00 0.00 36 1015.9
20260510012008 16 308 1.6 6.4 0.00 0.00 0.00 36 1015.9
20260510011508 16 305 3.2 12.9 0.00 0.00 0.00 36 1016.1
20260510011007 17 308 4.8 12.9 0.00 0.00 0.00 35 1015.8
20260510010507 17 311 4.8 14.5 0.00 0.00 0.00 34 1016.0
20260510010008 17 315 3.2 14.5 0.00 0.00 0.00 34 1015.8
20260510005509 17 318 1.6 9.7 0.00 0.00 0.00 34 1015.8
20260510005008 18 355 3.2 14.5 0.00 0.00 0.00 33 1015.9
20260510004007 18 308 6.4 17.7 0.00 0.00 0.00 33 1015.7
20260510003506 18 333 8.0 14.5 0.00 0.00 0.00 32 1015.6
20260510003006 18 305 4.8 12.9 0.00 0.00 0.00 33 1015.7
20260510002506 18 325 4.8 14.5 0.00 0.00 0.00 33 1015.5
20260510002008 18 331 6.4 14.5 0.00 0.00 0.00 34 1015.5
20260510001508 18 283 4.8 12.9 0.00 0.00 0.00 34 1015.5
20260510001005 17 301 3.2 12.9 0.00 0.00 0.00 34 1015.4
20260510000505 17 315 3.2 14.5 0.00 0.00 0.00 33 1015.5
20260510000005 18 318 6.4 14.5 0.00 0.00 0.00 33 1015.6
20260509235505 18 317 6.4 17.7 0.00 0.00 0.00 33 1015.4
20260509235005 18 322 11.3 20.9 0.00 0.00 0.00 32 1015.4
20260509234002 18 298 9.7 19.3 0.00 0.00 0.00 32 1015.3
20260509233501 18 268 6.4 16.1 0.00 0.00 0.00 32 1015.3
20260509233001 18 273 8.0 17.7 0.00 0.00 0.00 32 1015.5
20260509232501 18 317 8.0 17.7 0.00 0.00 0.00 32 1015.3
20260509232000 18 286 6.4 16.1 0.00 0.00 0.00 33 1015.3
20260509231502 18 12 3.2 14.5 0.00 0.00 0.00 33 1015.4
20260509231100 18 327 6.4 14.5 0.00 0.00 0.00 33 1015.4
20260509230603 18 317 4.8 14.5 0.00 0.00 0.00 33 1015.4
20260509230100 18 19 6.4 17.7 0.00 0.00 0.00 33 1015.5
20260509225602 18 338 4.8 17.7 0.00 0.00 0.00 33 1015.3
20260509225059 18 346 9.7 17.7 0.00 0.00 0.00 34 1015.2
20260509224100 18 360 6.4 16.1 0.00 0.00 0.00 33 1015.4
20260509223603 18 9 4.8 17.7 0.00 0.00 0.00 33 1015.4
20260509223103 18 303 8.0 17.7 0.00 0.00 0.00 33 1015.4
20260509222605 18 5 8.0 16.1 0.00 0.00 0.00 32 1015.3
20260509222059 18 19 8.0 16.1 0.00 0.00 0.00 32 1015.3
20260509221600 18 300 3.2 14.5 0.00 0.00 0.00 32 1015.3
20260509221100 18 272 6.4 22.5 0.00 0.00 0.00 32 1015.4
20260509220601 18 320 9.7 22.5 0.00 0.00 0.00 32 1015.3
20260509215559 18 321 4.8 14.5 0.00 0.00 0.00 33 1015.3
20260509215059 18 28 4.8 16.1 0.00 0.00 0.00 32 1015.3
20260509214100 18 344 4.8 20.9 0.00 0.00 0.00 33 1015.4
20260509213559 18 339 8.0 20.9 0.00 0.00 0.00 33 1015.6
20260509213103 18 318 6.4 19.3 0.00 0.00 0.00 34 1015.6
20260509212559 18 308 6.4 16.1 0.00 0.00 0.00 34 1015.6
20260509212059 18 24 6.4 17.7 0.00 0.00 0.00 34 1015.6
20260509211559 18 331 11.3 24.1 0.00 0.00 0.00 34 1015.6
20260509211058 18 294 8.0 19.3 0.00 0.00 0.00 35 1015.4
20260509210558 18 330 6.4 17.7 0.00 0.00 0.00 35 1015.5
20260509210107 18 316 6.4 19.3 0.00 0.00 0.00 36 1015.6
20260509205600 18 271 11.3 24.1 0.00 0.00 0.00 34 1015.6
20260509205057 18 310 9.7 24.1 0.00 0.00 0.00 36 1015.6
20260509204055 18 360 6.4 19.3 0.00 0.00 0.00 36 1015.6
20260509203558 18 311 6.4 20.9 0.00 0.00 0.00 38 1015.6
20260509203102 17 279 8.0 20.9 0.00 0.00 0.00 38 1015.5
20260509202552 17 278 6.4 20.9 0.00 0.00 0.00 39 1015.6
20260509202051 17 5 8.0 19.3 0.00 0.00 0.00 40 1015.6
20260509201551 16 24 3.2 16.1 0.00 0.00 0.00 43 1015.8
20260509201052 16 287 8.0 16.1 0.00 0.00 0.00 41 1015.7
20260509200551 16 296 6.4 20.9 0.00 0.00 0.00 40 1015.6
20260509200051 17 321 9.7 20.9 0.00 0.00 0.00 39 1015.8
20260509195550 16 13 6.4 19.3 0.00 0.00 0.00 40 1015.8
20260509195048 16 329 6.4 19.3 0.00 0.00 0.00 41 1015.8
20260509194053 15 355 8.0 17.7 0.00 0.00 0.00 42 1015.7
20260509193553 15 306 8.0 19.3 0.00 0.00 0.00 40 1015.7
20260509193057 16 343 8.0 19.3 0.00 0.00 0.00 40 1015.7
20260509192555 16 288 6.4 19.3 0.00 0.00 0.00 40 1015.7
20260509192053 16 343 4.8 19.3 0.00 0.00 0.00 41 1015.7
20260509191603 15 22 8.0 17.7 0.00 0.00 0.00 40 1015.5
20260509191055 16 33 6.4 19.3 0.00 0.00 0.00 40 1015.7
20260509190553 15 9 8.0 17.7 0.00 0.00 0.00 41 1015.6
20260509190054 15 51 4.8 14.5 0.00 0.00 0.00 41 1015.6
20260509185551 16 355 4.8 16.1 0.00 0.00 0.00 40 1015.8
20260509185050 16 360 6.4 16.1 0.00 0.00 0.00 40 1015.8
20260509184651 15 5 4.8 19.3 0.00 0.00 0.00 41 1015.7
20260509184045 15 315 4.8 19.3 0.00 0.00 0.00 40 1015.7
20260509183546 16 350 11.3 19.3 0.00 0.00 0.00 39 1015.7
20260509183052 16 5 6.4 20.9 0.00 0.00 0.00 39 1015.7
20260509182547 16 9 11.3 20.9 0.00 0.00 0.00 40 1015.6
20260509182044 15 28 6.4 17.7 0.00 0.00 0.00 40 1015.6
20260509181543 15 346 6.4 19.3 0.00 0.00 0.00 40 1015.6
20260509181043 15 17 9.7 19.3 0.00 0.00 0.00 40 1015.7
20260509180543 15 350 4.8 12.9 0.00 0.00 0.00 42 1015.5
20260509180042 15 10 6.4 19.3 0.00 0.00 0.00 41 1015.6
20260509175542 15 261 8.0 20.9 0.00 0.00 0.00 40 1015.7
20260509175043 15 28 6.4 22.5 0.00 0.00 0.00 41 1015.6
20260509174045 15 321 4.8 17.7 0.00 0.00 0.00 41 1015.6
20260509173541 15 28 6.4 17.7 0.00 0.00 0.00 41 1015.5
20260509173048 15 294 4.8 17.7 0.00 0.00 0.00 41 1015.6
20260509172543 14 360 9.7 17.7 0.00 0.00 0.00 42 1015.5
20260509172038 14 276 6.4 19.3 0.00 0.00 0.00 43 1015.3
20260509171538 14 338 4.8 17.7 0.00 0.00 0.00 42 1015.4
20260509171036 13 23 6.4 22.5 0.00 0.00 0.00 44 1015.2
20260509170537 13 51 9.7 22.5 0.00 0.00 0.00 42 1015.4
20260509170037 13 24 9.7 19.3 0.00 0.00 0.00 43 1015.5
20260509165536 13 37 6.4 17.7 0.00 0.00 0.00 42 1015.4
20260509165040 13 15 6.4 14.5 0.00 0.00 0.00 43 1015.5
20260509164035 13 342 6.4 16.1 0.00 0.00 0.00 43 1015.5
20260509163533 13 327 4.8 19.3 0.00 0.00 0.00 43 1015.3
20260509163039 13 55 8.0 19.3 0.00 0.00 0.00 43 1015.4
20260509162531 13 62 8.0 19.3 0.00 0.00 0.00 43 1015.3
20260509162030 13 57 6.4 19.3 0.00 0.00 0.00 43 1015.3
20260509161529 13 11 6.4 16.1 0.00 0.00 0.00 44 1015.2
20260509161032 12 29 4.8 14.5 0.00 0.00 0.00 46 1015.3
20260509160526 12 355 6.4 14.5 0.00 0.00 0.00 47 1015.3
20260509160026 12 355 3.2 19.3 0.00 0.00 0.00 47 1015.3
20260509155525 12 60 11.3 19.3 0.00 0.00 0.00 47 1015.3
20260509155023 12 24 4.8 14.5 0.00 0.00 0.00 48 1015.4
20260509154027 12 34 8.0 16.1 0.00 0.00 0.00 48 1015.3
20260509153530 12 34 8.0 16.1 0.00 0.00 0.00 48 1015.1
20260509153034 11 338 6.4 16.1 0.00 0.00 0.00 49 1015.1
20260509152524 11 11 6.4 14.5 0.00 0.00 0.00 50 1015.1
20260509152024 11 22 6.4 22.5 0.00 0.00 0.00 49 1015.1
20260509151523 11 292 4.8 22.5 0.00 0.00 0.00 51 1015.2
20260509151021 11 338 4.8 9.7 0.00 0.00 0.00 55 1015.1
20260509150523 11 31 3.2 9.7 0.00 0.00 0.00 54 1015.1
20260509150021 11 10 0.0 8.0 0.00 0.00 0.00 56 1015.1
20260509145520 10 63 0.0 6.4 0.00 0.00 0.00 59 1015.2
20260509145019 10 285 0.0 4.8 0.00 0.00 0.00 60 1015.1
20260509144018 9 269 0.0 4.8 0.00 0.00 0.00 64 1015.1
20260509143517 9 269 3.2 4.8 0.00 0.00 0.00 64 1015.0
20260509143017 9 282 1.6 6.4 0.00 0.00 0.00 64 1015.1
20260509142520 9 304 1.6 6.4 0.00 0.00 0.00 65 1015.0
20260509142016 8 9 1.6 6.4 0.00 0.00 0.00 65 1014.9
20260509141518 8 5 0.0 6.4 0.00 0.00 0.00 65 1014.9
20260509141014 8 38 1.6 6.4 0.00 0.00 0.00 65 1014.9
20260509140515 8 38 0.0 6.4 0.00 0.00 0.00 66 1014.8
20260509140015 8 23 3.2 6.4 0.00 0.00 0.00 67 1014.8
20260509135514 8 5 1.6 6.4 0.00 0.00 0.00 67 1014.8
20260509135014 8 30 1.6 6.4 0.00 0.00 0.00 68 1014.7
20260509134012 7 50 4.8 8.0 0.00 0.00 0.00 70 1014.5
20260509133512 7 5 4.8 8.0 0.00 0.00 0.00 71 1014.5
20260509133012 7 42 4.8 8.0 0.00 0.00 0.00 72 1014.4
20260509132512 7 19 3.2 8.0 0.00 0.00 0.00 72 1014.4
20260509132012 7 32 1.6 8.0 0.00 0.00 0.00 73 1014.4
20260509131514 6 33 1.6 8.0 0.00 0.00 0.00 74 1014.3
20260509131010 6 49 3.2 8.0 0.00 0.00 0.00 74 1014.3
20260509130511 6 13 4.8 8.0 0.00 0.00 0.00 75 1014.3
20260509130024 6 5 4.8 8.0 0.00 0.00 0.00 76 1014.2
20260509125509 6 22 3.2 6.4 0.00 0.00 0.00 77 1014.1
20260509125009 5 15 0.0 3.2 0.00 0.00 0.00 79 1014.1
20260509124010 5 15 0.0 1.6 0.00 0.00 0.00 80 1013.9
20260509123509 4 15 0.0 1.6 0.00 0.00 0.00 80 1013.9
20260509123009 4 15 0.0 1.6 0.00 0.00 0.00 81 1013.9
20260509122509 4 13 0.0 0.0 0.00 0.00 0.00 80 1013.7
20260509122008 3 13 0.0 0.0 0.00 0.00 0.00 81 1013.5
20260509121511 3 13 0.0 0.0 0.00 0.00 0.00 81 1013.5
20260509121007 3 13 0.0 0.0 0.00 0.00 0.00 82 1013.5
20260509120507 3 13 0.0 0.0 0.00 0.00 0.00 82 1013.3
20260509120007 3 13 0.0 0.0 0.00 0.00 0.00 83 1013.3
20260509115505 3 13 0.0 0.0 0.00 0.00 0.00 83 1013.1
20260509115005 2 14 0.0 0.0 0.00 0.00 0.00 83 1013.2
20260509114100 2 14 0.0 0.0 0.00 0.00 0.00 82 1012.9
20260509113603 2 14 0.0 0.0 0.00 0.00 0.00 81 1012.9
20260509113101 3 14 0.0 0.0 0.00 0.00 0.00 81 1012.9
20260509112557 3 14 0.0 0.0 0.00 0.00 0.00 81 1012.8
20260509112056 3 16 0.0 0.0 0.00 0.00 0.00 81 1012.7
20260509111556 3 16 0.0 0.0 0.00 0.00 0.00 82 1012.7
20260509111054 3 17 0.0 0.0 0.00 0.00 0.00 82 1012.5
20260509110558 3 17 0.0 3.2 0.00 0.00 0.00 82 1012.4
20260509110056 3 17 0.0 3.2 0.00 0.00 0.00 82 1012.4
20260509105552 3 16 0.0 1.6 0.00 0.00 0.00 81 1012.3
20260509105051 3 16 0.0 1.6 0.00 0.00 0.00 81 1012.1
20260509104652 3 16 0.0 4.8 0.00 0.00 0.00 81 1012.1
20260509104051 4 16 0.0 6.4 0.00 0.00 0.00 81 1012.0
20260509103551 4 23 3.2 8.0 0.00 0.00 0.00 81 1011.9
20260509103100 4 24 3.2 8.0 0.00 0.00 0.00 81 1011.8
20260509102550 4 33 3.2 8.0 0.00 0.00 0.00 81 1011.6
20260509102050 4 36 4.8 8.0 0.00 0.00 0.00 81 1011.6
20260509101601 4 28 3.2 6.4 0.00 0.00 0.00 81 1011.6
20260509101047 4 28 3.2 6.4 0.00 0.00 0.00 81 1011.5
20260509100547 5 28 3.2 6.4 0.00 0.00 0.00 81 1011.4
20260509100046 5 28 1.6 4.8 0.00 0.00 0.00 80 1011.3
20260509095545 5 28 1.6 6.4 0.00 0.00 0.00 80 1011.2
20260509095044 5 28 3.2 8.0 0.00 0.00 0.00 80 1011.2
20260509094645 5 26 3.2 8.0 0.00 0.00 0.00 80 1011.1
20260509094043 5 28 3.2 6.4 0.00 0.00 0.00 80 1011.1
20260509093540 5 20 3.2 4.8 0.00 0.00 0.00 80 1011.0
20260509093040 5 20 3.2 4.8 0.00 0.00 0.00 81 1011.0
20260509092539 5 20 3.2 4.8 0.00 0.00 0.00 81 1010.9
20260509092038 5 20 3.2 4.8 0.00 0.00 0.00 81 1010.7
20260509091537 5 20 0.0 3.2 0.00 0.00 0.00 80 1010.9
20260509091039 5 20 0.0 1.6 0.00 0.00 0.00 80 1010.5
20260509090538 5 20 0.0 3.2 0.00 0.00 0.00 80 1010.3
20260509090040 5 20 0.0 3.2 0.00 0.00 0.00 81 1010.3
20260509085533 5 20 0.0 1.6 0.00 0.00 0.00 80 1010.3
20260509085032 5 20 0.0 1.6 0.00 0.00 0.00 79 1010.2
20260509084632 5 20 0.0 3.2 0.00 0.00 0.00 79 1010.1
20260509084037 5 20 0.0 3.2 0.00 0.00 0.00 80 1010.0
20260509083537 5 20 1.6 4.8 0.00 0.00 0.00 79 1009.8
20260509083050 6 20 1.6 4.8 0.00 0.00 0.00 80 1009.6
20260509082534 6 20 1.6 4.8 0.00 0.00 0.00 79 1009.5
20260509082033 6 20 1.6 4.8 0.00 0.00 0.00 79 1009.6
20260509081532 6 20 1.6 4.8 0.00 0.00 0.00 78 1009.5
20260509081030 6 21 1.6 4.8 0.00 0.00 0.00 78 1009.4
20260509080528 7 21 3.2 6.4 0.00 0.00 0.00 78 1009.4
20260509080030 7 24 3.2 6.4 0.00 0.00 0.00 78 1009.4
20260509075531 7 45 1.6 4.8 0.00 0.00 0.00 78 1009.4
20260509075026 7 45 0.0 3.2 0.00 0.00 0.00 77 1009.4
20260509074625 7 45 0.0 0.0 0.00 0.00 0.00 77 1009.2
20260509074024 7 45 0.0 0.0 0.00 0.00 0.00 77 1009.3
20260509073524 7 45 0.0 3.2 0.00 0.00 0.00 76 1009.2
20260509073030 8 45 0.0 4.8 0.00 0.00 0.00 77 1009.2
20260509072524 8 45 1.6 8.0 0.00 0.00 0.00 77 1009.0
20260509072022 8 45 3.2 9.7 0.00 0.00 0.00 78 1008.9
20260509071530 7 44 4.8 9.7 0.00 0.00 0.00 78 1009.0
20260509071021 7 103 3.2 4.8 0.00 0.00 0.00 75 1008.9
20260509070524 7 103 3.2 4.8 0.00 0.00 0.00 73 1008.9
20260509070018 8 103 1.6 6.4 0.00 0.00 0.00 72 1008.7
20260509065517 8 103 3.2 6.4 0.00 0.00 0.00 72 1008.5
20260509065015 8 103 0.0 0.0 0.00 0.00 0.00 69 1008.5
20260509064615 9 103 0.0 0.0 0.00 0.00 0.00 70 1008.4
20260509064011 9 103 0.0 0.0 0.00 0.00 0.00 70 1008.4
20260509063511 10 103 0.0 0.0 0.00 0.00 0.00 69 1008.4
20260509063018 10 103 0.0 0.0 0.00 0.00 0.00 68 1008.3
20260509062509 10 103 0.0 0.0 0.00 0.00 0.00 67 1008.2
20260509062007 10 103 0.0 1.6 0.00 0.00 0.00 67 1008.2
20260509061508 10 103 0.0 1.6 0.00 0.00 0.00 67 1007.9
20260509061012 11 103 0.0 3.2 0.00 0.00 0.00 66 1007.8
20260509060508 11 103 1.6 4.8 0.00 0.00 0.00 66 1007.8
20260509060008 11 103 1.6 9.7 0.00 0.00 0.00 65 1007.7
20260509055507 11 103 1.6 11.3 0.00 0.00 0.00 64 1007.6
20260509055007 11 111 4.8 11.3 0.00 0.00 0.00 64 1007.7
20260509054618 11 103 4.8 9.7 0.00 0.00 0.00 62 1007.8
20260509054006 11 103 4.8 9.7 0.00 0.00 0.00 62 1007.7
20260509053506 11 103 1.6 6.4 0.00 0.00 0.00 62 1007.7
20260509053006 11 103 1.6 9.7 0.00 0.00 0.00 62 1007.6
20260509052506 12 103 3.2 9.7 0.00 0.00 0.00 61 1007.6
20260509052005 12 103 0.0 6.4 0.00 0.00 0.00 61 1007.5
20260509051505 12 103 1.6 9.7 0.00 0.00 0.00 61 1007.6
20260509051005 12 109 3.2 9.7 0.00 0.00 0.00 60 1007.6
20260509050505 12 74 1.6 9.7 0.00 0.00 0.00 59 1007.5
20260509050005 12 88 3.2 22.5 0.00 0.00 0.00 59 1007.5
20260509045508 12 63 8.0 22.5 0.00 0.00 0.00 58 1007.4
20260509045004 12 63 12.9 27.4 0.00 0.00 0.00 59 1007.5
20260509044704 13 61 12.9 22.5 0.00 0.00 0.00 59 1007.5
20260509044008 13 73 12.9 22.5 0.00 0.00 0.00 59 1007.3
20260509043506 13 67 6.4 24.1 0.00 0.00 0.00 58 1006.9
20260509043005 13 67 11.3 24.1 0.00 0.00 0.00 57 1007.0
20260509042505 13 57 12.9 24.1 0.00 0.00 0.00 58 1007.0
20260509042008 13 59 11.3 19.3 0.00 0.00 0.00 59 1006.9
20260509041505 13 35 6.4 16.1 0.00 0.00 0.00 59 1006.7
20260509041005 13 55 8.0 14.5 0.00 0.00 0.00 59 1006.6
20260509040505 13 36 6.4 14.5 0.00 0.00 0.00 58 1006.7
20260509040008 13 31 4.8 14.5 0.00 0.00 0.00 58 1006.6
20260509035505 13 29 6.4 12.9 0.00 0.00 0.00 58 1006.7
20260509035005 13 31 4.8 12.9 0.00 0.00 0.00 58 1006.6